Location: Clifton
(52.2500°N, 2.4167°W)
Time: 18:29:34
(UTC+00:00)

Daily predictions for brighter satellites

Satellite Brightness Start Highest point End
(mag) Time Altitude Azimuth Time Altitude Azimuth Time Altitude Azimuth
Meteor 1-28 Rocket 3.8 16:50:48 10° N 16:54:27 58° WNW 16:58:05 10° SSW
YAOGAN 1 4.2 16:54:15 10° E 16:56:47 15° NE 16:59:18 10° NNE
Cosmos 1455 2.2 16:53:06 10° S 16:56:53 86° W 17:00:40 10° N
Cosmos 1689 Rocket 2.3 16:53:54 10° NNE 16:56:57 79° WNW 16:59:59 10° SSW
Cosmos 2061 Rocket 4.3 16:51:16 10° NNW 16:57:29 74° W 17:03:41 10° S
IRS-1C Rocket 4.1 16:52:59 10° SSE 16:58:13 66° ENE 17:03:29 10° NNW
Cosmos 2227 Rocket 2.4 16:54:00 10° NNW 16:59:35 53° NE 17:05:07 10° SE
Cosmos 2297 Rocket 2.3 16:54:08 10° NNW 16:59:43 57° NE 17:05:17 10° SE
Cosmos 1238 Rocket 3.1 16:55:22 10° N 17:00:02 53° ENE 17:03:50 10° SSE
CENTAUR R/B 3.7 16:55:26 10° WNW 17:01:42 37° NNW 17:08:53 10° NE
CORIOLIS 4.3 16:57:00 10° SE 17:02:14 53° ENE 17:07:31 10° N
CZ-4 R/B 2.8 16:59:48 10° ESE 17:02:42 19° ENE 17:05:33 10° NNE
Cosmos-2242 4.1 16:59:36 10° SSW 17:03:43 46° WNW 17:07:50 10° N
Cosmos 1842 Rocket 3.6 17:01:28 10° S 17:05:53 63° E 17:10:20 10° NNE
Meteor 2-10 Rocket 3.4 17:01:00 10° S 17:05:59 77° E 17:11:05 10° NNE
Cosmos 2344 3.7 17:00:46 10° SSW 17:08:13 75° SE 17:16:42 10° NE
Okean-O 2.9 17:07:57 10° SE 17:12:10 44° ENE 17:16:23 10° N
Cosmos 1943 Rocket 3.8 17:10:26 10° WSW 17:15:21 30° NW 17:20:19 10° NNE
Aureole 2 Rocket 4.0 17:12:33 10° WSW 17:15:42 33° NW 17:19:00 10° N
H-2A R/B 2.7 17:15:24 10° SSE 17:19:12 64° ENE 17:23:00 10° N
ATLAS 3B R/B 3.7 17:13:46 10° WNW 17:19:43 33° NNW 17:25:37 10° NE
Cosmos 1743 Rocket 3.8 17:17:35 10° NNW 17:21:57 72° W 17:26:18 10° S
Cosmos 1805 Rocket 3.7 17:17:47 10° N 17:22:03 51° ENE 17:26:19 10° SSE
Cosmos 2263 Rocket 3.6 17:18:03 10° NNW 17:22:05 20° NNE 17:25:09 13° ENE
Genesis I 3.6 17:18:42 10° SSW 17:22:34 47° SE 17:25:52 13° NE
Cosmos 2233 Rocket 4.1 17:17:23 10° N 17:23:46 89° E 17:30:05 10° S
Cosmos 773 Rocket 4.2 17:20:16 10° S 17:25:13 48° ESE 17:30:14 10° NE
Cosmos 1867 3.6 17:20:47 10° SSW 17:26:13 71° SE 17:31:31 11° NE
Cosmos 2082 3.8 17:21:56 10° NNW 17:27:29 55° NE 17:32:59 10° SE
H-2A R/B 4.0 17:28:53 10° NE 17:28:59 10° NE 17:29:36 10° NE
COBE Rocket 4.1 17:27:59 10° NNE 17:32:39 45° E 17:37:09 10° S
Cosmos 1447 Rocket 4.5 17:27:09 10° S 17:33:19 66° E 17:39:35 10° NNE
Cosmos 2056 Rocket 4.4 17:30:58 10° N 17:35:20 27° NE 17:38:46 14° E
Meteor 1-27 4.2 17:31:53 10° S 17:37:33 79° E 17:43:20 10° NNE
ATLAS 5 CENTAUR R/B 2.6 17:32:21 10° NW 17:37:57 73° SW 17:44:25 10° SE
AQUARIUS 4.4 17:35:00 10° S 17:39:29 77° WSW 17:44:01 10° NNW
Cosmos 1697 Rocket 3.8 17:35:15 10° SSE 17:39:35 23° ESE 17:42:03 17° ENE
Meteor 2-2 Rocket 4.3 17:34:02 10° S 17:39:47 64° E 17:45:29 10° NNE
Cosmos 1862 3.8 17:36:21 10° N 17:40:03 36° ENE 17:43:45 10° SE
Okean O Rocket 4.1 17:36:46 10° SSW 17:40:27 26° W 17:44:10 10° NW
CZ-3B R/B 2.1 17:41:04 10° W 17:43:05 59° NNW 17:44:06 30° ENE
NOSS 7 (D) 3.8 17:40:13 10° SW 17:43:06 84° NW 17:44:36 24° NE
Cosmos 1538 Rocket 4.1 17:40:28 10° S 17:45:36 55° ESE 17:50:49 10° NNE
BREEZE-M DEB (TANK) 2.6 17:42:35 10° W 17:46:27 53° S 17:47:37 25° ESE
CZ-4B R/B 4.3 17:44:28 10° NNW 17:46:31 15° WNW 17:48:36 10° W
Cosmos 1464 Rocket 4.0 17:40:52 10° N 17:46:59 59° ENE 17:53:02 10° SSE
GEOS 3 Rocket 3.8 17:45:35 16° NE 17:49:41 56° SE 17:54:51 10° SSW
NOAA 12 4.1 17:44:39 10° SSE 17:50:00 89° ENE 17:55:23 10° NNW
Cosmos 1633 Rocket 3.3 17:47:12 10° N 17:51:29 46° ENE 17:55:44 10° SSE
Meteor 2-20 4.4 17:46:22 10° S 17:52:28 73° E 17:58:37 10° NNE
Cosmos 1072 Rocket 4.4 17:50:03 10° N 17:56:12 73° ENE 18:02:22 10° SSE
Cosmos 397 4.3 17:54:00 10° NW 17:58:18 71° NE 18:01:34 15° SE
Cosmos 2278 Rocket 4.4 17:56:38 10° NNW 17:58:26 11° N 18:00:13 10° NNE
Cosmos 1633 2.4 17:56:15 10° N 17:59:54 69° ENE 18:03:32 10° SSE
USA 215 3.3 17:56:07 19° E 18:01:04 71° NNE 18:07:33 10° WNW
COSMO-SKYMED 1 2.9 17:57:19 11° NNE 18:01:17 43° E 18:05:25 10° S
Cosmos 1666 Rocket 3.4 17:58:39 10° N 18:03:03 70° ENE 18:07:24 10° SSE
Cosmos 1933 Rocket 4.4 18:00:08 10° N 18:03:45 28° ENE 18:03:45 28° ENE
Sich 1 3.0 17:59:45 10° NNW 18:04:07 87° W 18:08:29 10° S
Cosmos 1844 Rocket 4.4 18:02:34 10° NNW 18:05:39 15° NNE 18:06:44 14° NE
Cosmos 1656 3.7 18:04:20 10° SSW 18:09:45 58° ESE 18:13:25 20° NE
Cosmos 1328 Rocket 4.1 18:06:54 10° SSE 18:10:55 35° E 18:11:27 34° ENE
USA 229 DEB 3.6 18:04:28 10° SSW 18:11:00 67° SE 18:15:39 22° NE
USA 229 3.6 18:04:36 10° SSW 18:11:06 66° SE 18:15:43 22° NE
Envisat 3.2 18:07:52 10° S 18:12:57 74° WSW 18:18:04 10° NNW
NOAA 11 4.3 18:08:19 10° SE 18:13:31 49° ENE 18:18:45 10° N
Cosmos 1151 Rocket 3.7 18:09:44 10° SSE 18:13:22 34° E 18:13:22 34° E
NOSS 3-1 (A) 3.7 18:11:00 10° SSW 18:16:19 45° ESE 18:18:59 29° ENE
NOSS 3-1 (C) 3.4 18:10:56 10° SSW 18:16:30 64° SE 18:20:14 25° NE
Cosmos 1356 Rocket 3.4 18:12:40 10° SSW 18:16:51 90° NE 18:21:08 10° NNE
Cosmos 1932 4.5 18:10:42 10° NW 18:17:15 76° NE 18:22:24 18° SE
CSL-04 Debris 4.1 18:12:12 10° SSE 18:17:41 73° ENE 18:23:11 10° NNW
SeaSat 1 3.5 18:16:40 10° S 18:21:24 47° WSW 18:26:11 10° NW
CZ-2D R/B 3.5 18:24:16 48° ENE 18:24:16 48° ENE 18:27:48 10° N
Cosmos 1452 Rocket 4.5 18:19:42 10° N 18:24:03 28° NE 18:24:03 28° NE
SKYMED 3 4.4 18:21:40 14° NNE 18:25:27 72° ESE 18:29:47 10° S
Cosmos 1371 Rocket 3.9 18:20:41 10° NNW 18:25:54 65° ENE 18:29:08 23° SE
YAOGAN 6 2.7 18:22:49 10° S 18:26:19 69° W 18:29:49 10° NNW
Lacrosse 4 Rocket 1.7 18:22:38 10° S 18:26:18 43° SE 18:26:18 43° SE
Cosmos 1869 4.0 18:23:32 10° SSW 18:27:25 54° WNW 18:31:18 10° N
Cosmos 2369 Rocket 4.4 18:26:08 10° WNW 18:29:37 16° NNW 18:33:06 10° NNE
Cosmos 2221 4.4 18:26:04 10° SW 18:29:54 30° WNW 18:33:46 10° N
YAOGAN 1 2.5 18:27:57 10° SSE 18:32:17 88° WSW 18:36:39 10° NNW
Cosmos 1470 Rocket 3.5 18:29:28 10° N 18:33:59 68° ENE 18:37:26 17° SSE
CSL-04 Rocket 3.6 18:30:00 10° SSE 18:35:22 85° WSW 18:40:43 10° NNW
USA 116 4.1 18:34:34 36° NE 18:36:21 63° ESE 18:41:16 10° S
ERBS 3.6 18:33:48 10° SSW 18:35:52 29° S 18:35:52 29° S
Geosat 4.1 18:33:38 21° NNE 18:37:00 78° NW 18:42:02 10° SW
CZ-4 R/B 1.9 18:33:14 10° S 18:37:21 62° WSW 18:41:25 10° NNW
Cosmos 724 4.3 18:33:15 10° NW 18:39:08 78° SW 18:43:11 20° SSE
Cosmos 2346 Rocket 4.4 18:34:25 10° S 18:40:34 63° E 18:46:40 10° NNE
Meteor 2-11 Rocket 4.4 18:36:07 10° NNW 18:42:16 83° W 18:48:24 10° S
Cosmos 2112 Rocket 4.1 18:38:22 10° S 18:43:22 51° ESE 18:43:26 51° ESE
Cosmos 1980 Rocket 2.9 18:38:12 10° S 18:42:21 35° SE 18:42:21 35° SE
Cosmos 2227 Rocket 3.9 18:38:24 10° NW 18:43:27 34° WSW 18:48:28 10° S
Cosmos 2297 Rocket 4.0 18:38:35 10° NW 18:43:30 32° WSW 18:48:25 10° SSW
Cosmos 2034 Rocket 4.1 18:37:29 10° NNW 18:43:51 80° W 18:50:13 10° S
SKYMED 2 3.8 18:46:00 15° N 18:49:30 69° WNW 18:53:49 10° SSW
Cosmos 1680 Rocket 3.4 18:45:25 10° SSW 18:50:34 67° ESE 18:51:19 58° ENE
Cosmos 1939 Rocket 2.8 18:50:52 85° ENE 18:50:52 85° ENE 18:55:00 10° NNW
CENTAUR R/B 3.7 18:47:29 10° NW 18:54:16 39° NNE 18:56:35 33° NE
Ariane Rocket 2.8 18:54:36 52° SE 18:55:48 75° ENE 19:00:55 10° NNW
NOSS 2-3 (C) 4.3 18:51:36 10° SSW 18:54:59 44° SSE 18:54:59 44° SSE
USA 238 DEB 4.1 18:53:55 10° NW 19:00:45 49° NNE 19:02:04 44° ENE
USA 238 4.1 18:54:01 10° NW 19:00:51 49° NNE 19:02:09 44° ENE
Timation 1 Rocket 4.3 18:56:36 10° NNW 19:02:32 59° NE 19:02:47 58° ENE
Cosmos 2369 3.6 18:58:53 10° SSW 19:04:34 89° SE 19:06:07 51° NNE
Cosmos 1634 Rocket 3.8 18:58:56 10° N 19:05:10 72° ENE 19:07:07 45° SSE
Cosmos 2263 Rocket 2.1 19:01:34 10° NNW 19:06:52 63° NE 19:06:52 63° NE
H-2A R/B 3.4 19:09:32 27° NNE 19:09:32 27° NNE 19:12:11 10° N
NOSS 3-2 (A) 4.2 19:00:34 10° NW 19:07:24 50° NNE 19:08:42 46° ENE
Tsikada Rocket 3.9 19:03:49 10° S 19:10:11 85° E 19:16:40 10° N
Cosmos 2142 Rocket 4.4 19:04:58 10° N 19:11:21 64° ENE 19:11:30 63° E
ATLAS 3B R/B 3.5 19:06:08 10° NW 19:12:09 34° NNE 19:12:52 33° NNE
Cosmos 1816 Rocket 4.5 19:08:43 10° S 19:15:05 86° W 19:21:32 10° N
Cosmos 923 Rocket 4.2 19:10:09 10° SW 19:15:21 67° WNW 19:16:43 47° N
Cosmos 2360 4.2 19:11:37 10° SSW 19:16:37 66° SSE 19:16:37 66° SSE
Cosmos 1624 Rocket 4.4 19:12:20 10° NNW 19:17:38 62° WSW 19:19:31 38° S
Cosmos 2056 Rocket 3.8 19:12:48 10° NNW 19:17:53 62° WSW 19:19:10 46° SSW
Gblst 52 Del rocket 4.2 19:15:31 10° W 19:22:17 85° S 19:22:38 80° SE
Cosmos 1697 Rocket 2.8 19:17:20 10° SW 19:22:59 75° WNW 19:23:49 63° N
Cosmos 2344 4.4 19:15:59 10° W 19:23:23 48° NNW 19:27:42 29° NE
Cosmos 2278 3.6 19:18:35 10° SSW 19:24:17 87° WNW 19:24:19 86° NW
GEOS 3 Rocket 4.4 19:26:42 41° N 19:27:41 46° NNW 19:32:40 10° WSW
Cosmos 2279 Rocket 4.3 19:22:24 10° N 19:27:05 50° NNE 19:27:05 50° NNE
Cosmos 2227 4.5 19:33:39 10° NW 19:39:23 65° WSW 19:39:31 64° WSW
USA 215 3.4 19:43:29 58° S 19:44:12 62° SW 19:50:42 10° WNW
Cosmos 2278 Rocket 4.3 19:41:16 10° NNW 19:43:07 15° N 19:43:07 15° N
NOSS 3-2 (C) 4.2 19:43:36 10° NW 19:50:03 54° NNE 19:50:03 54° NNE
Cosmos 1844 Rocket 4.4 19:46:00 10° NNW 19:48:23 23° N 19:48:23 23° N
USA 229 DEB 4.3 19:55:51 10° W 20:02:19 48° NNW 20:03:06 46° N
USA 229 4.3 19:55:57 10° WSW 20:02:25 48° NNW 20:03:10 46° N
Lacrosse 4 Rocket 4.1 20:01:40 10° WSW 20:02:40 16° W 20:02:40 16° W
NOSS 3-1 (A) 4.0 20:01:20 10° WSW 20:06:27 54° WNW 20:06:27 54° WNW
NOSS 3-1 (C) 4.3 20:01:59 10° W 20:07:39 46° NNW 20:07:39 46° NNW
Cosmos 1980 Rocket 4.0 20:21:48 10° SW 20:24:11 25° WSW 20:24:11 25° WSW
CENTAUR R/B 3.7 20:38:30 10° NW 20:43:46 48° NNW 20:43:46 48° NNW
Cosmos 2263 Rocket 4.3 20:46:04 10° NW 20:48:35 21° WNW 20:48:35 21° WNW
ATLAS 3B R/B 4.2 20:57:11 10° NW 21:00:07 28° NW 21:00:07 28° NW
